Location: Endfield
(51.6667°N, 0.0667°W)
Time: 03:08:10
(UTC+00:00)

Cosmos 1975 - Pass Details

Date: 19 May 2024
Orbit: 513 x 532 km, 82.5° (Epoch: 17 June)

Event Time Altitude Azimuth Distance (km) Brightness Sun altitude
Rises 22:49:47 0° 349° (N) 2,696 8.1 -16.8°
Reaches altitude 10° 22:51:57 10° 350° (N) 1,801 6.8 -16.9°
Maximum altitude 22:55:55 88° 73° (ENE) 543 2.7 -17.1°
Enters shadow 22:57:20 39° 168° (SSE) 819 3.2 -17.1°
